• In Belgium
  • List of Countries
  • For 7 days
  • Water Temperature
  • Satellite Maps
  • Weather Map
  • Weather Widgets
  • user-avatar
    Login

    Hourly Weather Geraardsbergen

    Today, 24 October, Wednesday

    Time Temperature Precipitation Wind Pressure Humidity
    00:00 +11°C° 0 mm 4 mps 768 mmHg 92%
    01:00 +12°C° 0 mm 4 mps 768 mmHg 92%
    02:00 +12°C° 0 mm 4 mps 767 mmHg 92%
    03:00 +12°C° 0 mm 4 mps 767 mmHg 92%
    04:00 +12°C° 0 mm 4 mps 767 mmHg 92%
    05:00 +12°C° 0 mm 4 mps 767 mmHg 92%
    06:00 +13°C° 0 mm 3 mps 767 mmHg 92%
    07:00 +14°C° 0 mm 4 mps 768 mmHg 89%
    08:00 +14°C° 0 mm 4 mps 768 mmHg 86%
    09:00 +15°C° 0 mm 4 mps 768 mmHg 83%
    10:00 +15°C° 0 mm 4 mps 768 mmHg 82%
    11:00 +17°C° 0 mm 4 mps 768 mmHg 82%
    12:00 +17°C° 0 mm 4 mps 768 mmHg 81%
    13:00 +17°C° 0 mm 3 mps 768 mmHg 82%
    14:00 +16°C° 0 mm 3 mps 768 mmHg 82%
    15:00 +16°C° 0 mm 3 mps 768 mmHg 83%
    16:00 +16°C° 0 mm 3 mps 768 mmHg 86%
    17:00 +15°C° 0 mm 2 mps 767 mmHg 88%
    18:00 +15°C° 0 mm 2 mps 767 mmHg 90%
    19:00 +14°C° 0 mm 2 mps 767 mmHg 91%
    20:00 +14°C° 0 mm 2 mps 767 mmHg 91%
    21:00 +14°C° 0 mm 2 mps 767 mmHg 91%
    22:00 +14°C° 0 mm 2 mps 767 mmHg 92%
    23:00 +12°C° 0 mm 3 mps 766 mmHg 92%

    Tomorrow, 25 October, Thursday

    Time Temperature Precipitation Wind Pressure Humidity
    00:00 +12°C° 0 mm 3 mps 766 mmHg 92%
    01:00 +12°C° 0 mm 3 mps 766 mmHg 92%
    02:00 +12°C° 0 mm 3 mps 765 mmHg 91%
    03:00 +12°C° 0 mm 3 mps 765 mmHg 91%
    04:00 +12°C° 0 mm 3 mps 765 mmHg 90%
    05:00 +11°C° 0 mm 3 mps 765 mmHg 89%
    06:00 +11°C° 0 mm 3 mps 764 mmHg 88%
    07:00 +11°C° 0 mm 3 mps 764 mmHg 85%
    08:00 +12°C° 0 mm 3 mps 764 mmHg 82%
    09:00 +12°C° 0 mm 3 mps 764 mmHg 79%
    10:00 +12°C° 0 mm 3 mps 764 mmHg 78%
    11:00 +12°C° 0 mm 3 mps 764 mmHg 76%
    12:00 +13°C° 0 mm 3 mps 764 mmHg 74%
    13:00 +13°C° 0 mm 3 mps 763 mmHg 74%
    14:00 +12°C° 0 mm 3 mps 763 mmHg 74%
    15:00 +13°C° 0 mm 2 mps 763 mmHg 74%
    16:00 +13°C° 0 mm 2 mps 762 mmHg 76%
    17:00 +12°C° 0 mm 2 mps 762 mmHg 78%
    18:00 +12°C° 0 mm 2 mps 762 mmHg 79%
    19:00 +12°C° 0 mm 2 mps 762 mmHg 80%
    20:00 +12°C° 0 mm 2 mps 762 mmHg 81%
    21:00 +12°C° 0 mm 2 mps 761 mmHg 81%
    22:00 +10°C° 0 mm 2 mps 761 mmHg 82%
    23:00 +10°C° 0 mm 3 mps 760 mmHg 82%

    Day after tomorrow, 26 October, Friday

    Time Temperature Precipitation Wind Pressure Humidity
    00:00 +10°C° 0 mm 3 mps 760 mmHg 83%
    01:00 +10°C° 0 mm 3 mps 759 mmHg 84%
    02:00 +10°C° 0 mm 4 mps 759 mmHg 85%
    03:00 +8°C° 0 mm 4 mps 758 mmHg 86%
    04:00 +8°C° 0 mm 4 mps 758 mmHg 86%
    05:00 +9°C° 0 mm 5 mps 757 mmHg 86%
    06:00 +9°C° 0 mm 5 mps 757 mmHg 86%
    07:00 +9°C° 0.1 mm 5 mps 757 mmHg 83%
    08:00 +9°C° 0.1 mm 6 mps 757 mmHg 80%
    09:00 +10°C° 0.1 mm 6 mps 756 mmHg 77%
    10:00 +10°C° 0.1 mm 6 mps 757 mmHg 73%
    11:00 +10°C° 0.1 mm 7 mps 757 mmHg 69%
    12:00 +11°C° 0.1 mm 7 mps 757 mmHg 65%
    13:00 +10°C° 0 mm 7 mps 757 mmHg 61%
    14:00 +10°C° 0 mm 7 mps 757 mmHg 58%
    15:00 +10°C° 0 mm 7 mps 757 mmHg 55%
    16:00 +9°C° 0 mm 6 mps 757 mmHg 58%
    17:00 +7°C° 0 mm 5 mps 757 mmHg 61%
    18:00 +6°C° 0 mm 4 mps 758 mmHg 64%
    19:00 +6°C° 0 mm 4 mps 758 mmHg 66%
    20:00 +6°C° 0 mm 4 mps 758 mmHg 68%
    21:00 +5°C° 0 mm 4 mps 758 mmHg 70%
    22:00 +5°C° 0.2 mm 4 mps 759 mmHg 73%
    23:00 +5°C° 0.2 mm 4 mps 759 mmHg 75%

    27 October, Saturday

    Time Temperature Precipitation Wind Pressure Humidity
    00:00 +5°C° 0.2 mm 4 mps 759 mmHg 78%
    01:00 +5°C° 0.4 mm 4 mps 758 mmHg 79%
    02:00 +5°C° 0.4 mm 4 mps 758 mmHg 80%
    03:00 +6°C° 0.4 mm 4 mps 758 mmHg 82%
    04:00 +5°C° 0.3 mm 3 mps 758 mmHg 83%
    05:00 +5°C° 0.3 mm 3 mps 758 mmHg 84%
    06:00 +4°C° 0.3 mm 3 mps 758 mmHg 86%
    07:00 +5°C° 0.4 mm 3 mps 758 mmHg 82%
    08:00 +7°C° 0.4 mm 3 mps 758 mmHg 79%
    09:00 +7°C° 0.4 mm 2 mps 758 mmHg 76%
    10:00 +8°C° 0.3 mm 3 mps 758 mmHg 72%
    11:00 +9°C° 0.3 mm 3 mps 758 mmHg 67%
    12:00 +9°C° 0.3 mm 3 mps 758 mmHg 63%
    13:00 +9°C° 0.1 mm 3 mps 757 mmHg 64%
    14:00 +8°C° 0.1 mm 4 mps 757 mmHg 64%
    15:00 +8°C° 0.1 mm 4 mps 757 mmHg 65%
    16:00 +8°C° 0 mm 3 mps 757 mmHg 69%
    17:00 +7°C° 0 mm 3 mps 758 mmHg 73%
    18:00 +5°C° 0 mm 3 mps 758 mmHg 77%
    19:00 +4°C° 0 mm 3 mps 758 mmHg 77%
    20:00 +4°C° 0 mm 3 mps 758 mmHg 78%
    21:00 +4°C° 0 mm 3 mps 759 mmHg 79%
    22:00 +3°C° 0.1 mm 3 mps 759 mmHg 80%
    23:00 +3°C° 0.1 mm 3 mps 759 mmHg 81%

    28 October, Sunday

    Time Temperature Precipitation Wind Pressure Humidity
    00:00 +2°C° 0.1 mm 3 mps 759 mmHg 82%
    01:00 +3°C° 0 mm 2 mps 759 mmHg 83%
    02:00 +3°C° 0 mm 2 mps 759 mmHg 84%
    03:00 +3°C° 0 mm 2 mps 759 mmHg 85%
    04:00 +3°C° 0 mm 2 mps 759 mmHg 85%
    05:00 +3°C° 0 mm 2 mps 759 mmHg 86%
    06:00 +3°C° 0 mm 2 mps 759 mmHg 86%
    07:00 +4°C° 0 mm 2 mps 759 mmHg 81%
    08:00 +5°C° 0 mm 2 mps 759 mmHg 75%
    09:00 +7°C° 0 mm 2 mps 759 mmHg 70%
    10:00 +8°C° 0 mm 3 mps 759 mmHg 64%
    11:00 +8°C° 0 mm 4 mps 759 mmHg 58%
    12:00 +9°C° 0 mm 5 mps 758 mmHg 52%
    13:00 +9°C° 0 mm 6 mps 758 mmHg 52%
    14:00 +9°C° 0 mm 6 mps 758 mmHg 53%
    15:00 +9°C° 0 mm 6 mps 758 mmHg 54%
    16:00 +8°C° 0 mm 6 mps 758 mmHg 58%
    17:00 +7°C° 0 mm 6 mps 758 mmHg 62%
    18:00 +5°C° 0 mm 7 mps 759 mmHg 67%
    19:00 +4°C° 0 mm 7 mps 759 mmHg 68%
    20:00 +4°C° 0 mm 7 mps 759 mmHg 70%
    21:00 +3°C° 0 mm 7 mps 759 mmHg 72%
    22:00 +3°C° 0 mm 6 mps 759 mmHg 72%
    23:00 +2°C° 0 mm 6 mps 759 mmHg 72%

    29 October, Monday

    Time Temperature Precipitation Wind Pressure Humidity
    00:00 +2°C° 0 mm 6 mps 759 mmHg 72%
    01:00 +2°C° 0 mm 6 mps 759 mmHg 74%
    02:00 +1°C° 0 mm 6 mps 758 mmHg 77%
    03:00 +1°C° 0 mm 6 mps 758 mmHg 79%
    04:00 +1°C° 0 mm 6 mps 758 mmHg 80%
    05:00 +1°C° 0 mm 6 mps 757 mmHg 80%
    06:00 +1°C° 0 mm 6 mps 757 mmHg 81%
    07:00 +2°C° 0 mm 7 mps 757 mmHg 77%
    08:00 +3°C° 0 mm 7 mps 756 mmHg 72%
    09:00 +2°C° 0 mm 8 mps 756 mmHg 67%
    10:00 +4°C° 0 mm 8 mps 755 mmHg 65%
    11:00 +5°C° 0 mm 8 mps 755 mmHg 62%
    12:00 +5°C° 0 mm 8 mps 754 mmHg 59%
    13:00 +5°C° 0.1 mm 7 mps 754 mmHg 61%
    14:00 +5°C° 0.1 mm 6 mps 753 mmHg 63%
    15:00 +5°C° 0.1 mm 6 mps 753 mmHg 65%
    16:00 +5°C° 0 mm 5 mps 753 mmHg 67%
    17:00 +5°C° 0 mm 5 mps 753 mmHg 70%
    18:00 +4°C° 0 mm 4 mps 752 mmHg 72%
    19:00 +4°C° 0 mm 4 mps 752 mmHg 74%
    20:00 +3°C° 0 mm 4 mps 752 mmHg 77%
    21:00 +3°C° 0 mm 3 mps 751 mmHg 79%
    22:00 +3°C° 0 mm 3 mps 751 mmHg 81%
    23:00 +3°C° 0 mm 3 mps 751 mmHg 82%

    30 October, Tuesday

    Time Temperature Precipitation Wind Pressure Humidity
    00:00 +3°C° 0 mm 2 mps 750 mmHg 84%
    01:00 +3°C° 0 mm 2 mps 750 mmHg 85%
    02:00 +3°C° 0 mm 2 mps 749 mmHg 86%
    03:00 +3°C° 0 mm 2 mps 749 mmHg 86%
    04:00 +3°C° 0 mm 2 mps 749 mmHg 87%
    05:00 +3°C° 0 mm 2 mps 748 mmHg 87%
    06:00 +2°C° 0 mm 3 mps 748 mmHg 88%
    07:00 +3°C° 0 mm 3 mps 748 mmHg 85%
    08:00 +3°C° 0 mm 4 mps 748 mmHg 82%
    09:00 +4°C° 0 mm 4 mps 748 mmHg 79%
    10:00 +5°C° 0 mm 4 mps 747 mmHg 76%
    11:00 +6°C° 0 mm 5 mps 747 mmHg 72%
    12:00 +8°C° 0 mm 6 mps 747 mmHg 69%
    13:00 +8°C° 0.1 mm 6 mps 747 mmHg 69%
    14:00 +8°C° 0.1 mm 5 mps 747 mmHg 69%
    15:00 +8°C° 0.1 mm 5 mps 747 mmHg 69%
    16:00 +8°C° 0.1 mm 5 mps 747 mmHg 70%
    17:00 +7°C° 0.1 mm 5 mps 748 mmHg 72%
    18:00 +7°C° 0.1 mm 6 mps 748 mmHg 74%
    19:00 +6°C° 0.1 mm 5 mps 748 mmHg 74%
    20:00 +6°C° 0.1 mm 5 mps 749 mmHg 75%
    21:00 +5°C° 0.1 mm 5 mps 749 mmHg 75%
    22:00 +3°C° 0 mm 5 mps 749 mmHg 73%
    23:00 +3°C° 0 mm 5 mps 750 mmHg 71%
    Show more